Time,TemperatureF,DewpointF,PressureIn,WindDirection,WindDirectionDegrees,WindSpeedMPH,WindSpeedGustMPH,Humidity,HourlyPrecipIn,Conditions,Clouds,dailyrainin,SoftwareType,DateUTC
2013-04-21 09:47:00,39.7,30.4,-100.00,SSE,157,0.0,0.0,69,0.00,,,0.00,VWS V14.01,2013-04-21 16:47:00,
2013-04-21 09:52:00,51.4,27.9,-100.00,West,265,3.1,4.9,40,0.00,,,0.00,VWS V14.01,2013-04-21 16:52:00,
2013-04-21 09:57:00,52.2,28.0,-100.00,South,170,2.2,6.3,39,0.00,,,0.00,VWS V14.01,2013-04-21 16:57:00,
2013-04-21 10:02:00,53.4,28.5,-100.00,WSW,257,4.0,6.3,38,0.00,,,0.00,VWS V14.01,2013-04-21 17:02:00,
2013-04-21 10:07:00,54.7,29.6,-100.00,WSW,253,3.6,6.7,38,0.00,,,0.00,VWS V14.01,2013-04-21 17:07:00,
2013-04-21 10:12:00,55.2,29.4,-100.00,WSW,240,4.0,8.3,37,0.00,,,0.00,VWS V14.01,2013-04-21 17:12:00,
2013-04-21 10:17:00,55.4,28.9,-100.00,WSW,240,4.0,8.7,36,0.00,,,0.00,VWS V14.01,2013-04-21 17:17:00,
2013-04-21 10:22:00,55.6,29.1,-100.00,WSW,253,5.8,8.7,36,0.00,,,0.00,VWS V14.01,2013-04-21 17:22:00,
2013-04-21 10:27:00,55.8,29.2,-100.00,SW,214,5.8,12.3,36,0.00,,,0.00,VWS V14.01,2013-04-21 17:27:00,
2013-04-21 13:00:00,60.3,32.5,-100.00,WSW,246,5.8,5.8,35,0.00,,,0.00,VWS V14.01,2013-04-21 20:00:00,
2013-04-21 13:05:00,60.4,32.7,-100.00,SSW,206,5.8,8.3,35,0.00,,,0.00,VWS V14.01,2013-04-21 20:05:00,
2013-04-21 13:10:00,61.0,33.2,-100.00,WSW,245,7.6,12.8,35,0.00,,,0.00,VWS V14.01,2013-04-21 20:10:00,
2013-04-21 13:15:00,60.6,33.5,-100.00,South,187,8.1,12.8,36,0.00,,,0.00,VWS V14.01,2013-04-21 20:15:00,
2013-04-21 13:20:00,60.8,33.0,-100.00,SW,219,4.0,12.8,35,0.00,,,0.00,VWS V14.01,2013-04-21 20:20:00,
2013-04-21 13:25:00,61.3,33.5,-100.00,SW,225,3.1,12.8,35,0.00,,,0.00,VWS V14.01,2013-04-21 20:25:00,
2013-04-21 13:30:00,61.7,33.8,-100.00,WSW,242,3.6,12.8,35,0.00,,,0.00,VWS V14.01,2013-04-21 20:30:00,
2013-04-21 13:35:00,62.2,34.3,-100.00,South,181,8.3,12.8,35,0.00,,,0.00,VWS V14.01,2013-04-21 20:35:00,
2013-04-21 13:40:00,61.9,34.0,-100.00,WSW,257,3.6,12.8,35,0.00,,,0.00,VWS V14.01,2013-04-21 20:40:00,
2013-04-21 13:45:00,62.1,34.1,-100.00,WSW,250,5.8,12.8,35,0.00,,,0.00,VWS V14.01,2013-04-21 20:45:00,
2013-04-21 13:50:00,62.2,34.3,-100.00,SSW,209,5.4,12.8,35,0.00,,,0.00,VWS V14.01,2013-04-21 20:50:00,
2013-04-21 13:55:00,61.7,33.8,-100.00,West,265,5.8,12.8,35,0.00,,,0.00,VWS V14.01,2013-04-21 20:55:00,
2013-04-21 14:00:00,61.2,33.3,-100.00,WSW,251,5.8,15.0,35,0.00,,,0.00,VWS V14.01,2013-04-21 21:00:00,
2013-04-21 14:05:00,61.7,33.8,-100.00,WSW,239,3.1,9.2,35,0.00,,,0.00,VWS V14.01,2013-04-21 21:05:00,
2013-04-21 14:10:00,61.5,33.6,-100.00,WSW,245,3.6,15.4,35,0.00,,,0.00,VWS V14.01,2013-04-21 21:10:00,
2013-04-21 14:15:00,61.5,33.6,-100.00,WSW,243,3.6,15.4,35,0.00,,,0.00,VWS V14.01,2013-04-21 21:15:00,
2013-04-21 14:20:00,61.5,33.6,-100.00,SSW,203,4.0,15.4,35,0.00,,,0.00,VWS V14.01,2013-04-21 21:20:00,
2013-04-21 14:25:00,60.6,32.8,-100.00,SSW,193,8.3,15.4,35,0.00,,,0.00,VWS V14.01,2013-04-21 21:25:00,
2013-04-21 14:30:00,60.4,32.7,-100.00,SW,226,8.1,15.4,35,0.00,,,0.00,VWS V14.01,2013-04-21 21:30:00,
2013-04-21 15:07:00,60.6,33.5,-100.00,SSW,203,4.0,15.4,36,0.00,,,0.00,VWS V14.01,2013-04-21 22:07:00,
2013-04-21 15:12:00,60.8,33.0,-100.00,WSW,255,8.1,15.4,35,0.00,,,0.00,VWS V14.01,2013-04-21 22:12:00,
2013-04-21 15:17:00,61.7,34.5,-100.00,SSW,203,5.8,15.4,36,0.00,,,0.00,VWS V14.01,2013-04-21 22:17:00,
2013-04-21 15:22:00,62.8,34.0,-100.00,NW,318,4.9,15.4,34,0.00,,,0.00,VWS V14.01,2013-04-21 22:22:00,
2013-04-21 15:27:00,63.0,34.2,-100.00,West,261,6.3,15.4,34,0.00,,,0.00,VWS V14.01,2013-04-21 22:27:00,
2013-04-21 15:32:00,62.6,33.9,-100.00,SW,227,2.2,15.4,34,0.00,,,0.00,VWS V14.01,2013-04-21 22:32:00,
2013-04-21 15:37:00,62.1,33.4,-100.00,NW,304,3.1,15.4,34,0.00,,,0.00,VWS V14.01,2013-04-21 22:37:00,
2013-04-21 15:42:00,60.4,32.7,-100.00,NW,306,6.3,15.4,35,0.00,,,0.00,VWS V14.01,2013-04-21 22:42:00,
2013-04-21 15:47:00,59.7,32.0,-100.00,NNW,339,2.7,15.4,35,0.00,,,0.00,VWS V14.01,2013-04-21 22:47:00,
2013-04-21 18:48:00,59.7,32.0,-100.00,SSW,197,4.9,15.4,35,0.00,,,0.00,VWS V14.01,2013-04-22 01:48:00,
2013-04-21 18:53:00,54.7,33.8,-100.00,SW,219,2.7,15.4,45,0.00,,,0.00,VWS V14.01,2013-04-22 01:53:00,
2013-04-21 18:58:00,54.3,33.5,-100.00,SW,234,2.2,15.4,45,0.00,,,0.00,VWS V14.01,2013-04-22 01:58:00,
2013-04-21 19:03:00,54.0,33.7,-100.00,SW,219,2.7,4.9,46,0.00,,,0.00,VWS V14.01,2013-04-22 02:03:00,
2013-04-21 19:08:00,53.6,33.9,-100.00,WNW,288,3.1,6.7,47,0.00,,,0.00,VWS V14.01,2013-04-22 02:08:00,
2013-04-21 19:13:00,53.1,33.9,-100.00,WSW,242,0.0,6.7,48,0.00,,,0.00,VWS V14.01,2013-04-22 02:13:00,
2013-04-21 19:18:00,52.7,33.6,-100.00,SSW,194,2.7,6.7,48,0.00,,,0.00,VWS V14.01,2013-04-22 02:18:00,
2013-04-21 19:23:00,52.2,33.1,-100.00,West,269,3.6,6.7,48,0.00,,,0.00,VWS V14.01,2013-04-22 02:23:00,
2013-04-21 19:28:00,51.8,33.3,-100.00,South,180,0.0,8.1,49,0.00,,,0.00,VWS V14.01,2013-04-22 02:28:00,
2013-04-21 19:33:00,51.6,33.6,-100.00,SSE,166,2.7,8.1,50,0.00,,,0.00,VWS V14.01,2013-04-22 02:33:00,
2013-04-21 19:38:00,51.3,33.3,-100.00,WSW,253,2.7,8.1,50,0.00,,,0.00,VWS V14.01,2013-04-22 02:38:00,
2013-04-21 19:43:00,50.7,33.8,-100.00,WSW,241,0.0,8.1,52,0.00,,,0.00,VWS V14.01,2013-04-22 02:43:00,
2013-04-21 19:48:00,50.4,33.4,-100.00,SW,226,3.6,8.1,52,0.00,,,0.00,VWS V14.01,2013-04-22 02:48:00,
2013-04-21 19:53:00,50.0,33.1,-100.00,SW,234,2.2,8.1,52,0.00,,,0.00,VWS V14.01,2013-04-22 02:53:00,
2013-04-21 19:58:00,49.8,33.4,-100.00,West,265,2.7,8.1,53,0.00,,,0.00,VWS V14.01,2013-04-22 02:58:00,
2013-04-21 20:03:00,49.5,33.1,-100.00,WNW,285,4.0,4.0,53,0.00,,,0.00,VWS V14.01,2013-04-22 03:03:00,
2013-04-21 20:08:00,49.3,32.9,-100.00,West,269,0.0,4.0,53,0.00,,,0.00,VWS V14.01,2013-04-22 03:08:00,
2013-04-21 20:13:00,49.3,32.9,-100.00,WSW,241,0.0,4.0,53,0.00,,,0.00,VWS V14.01,2013-04-22 03:13:00,
2013-04-21 20:18:00,48.9,33.0,-100.00,WSW,244,0.0,4.9,54,0.00,,,0.00,VWS V14.01,2013-04-22 03:18:00,
2013-04-21 20:23:00,48.7,32.8,-100.00,WSW,237,0.0,4.9,54,0.00,,,0.00,VWS V14.01,2013-04-22 03:23:00,
2013-04-21 20:28:00,48.6,33.1,-100.00,WNW,294,0.0,4.9,55,0.00,,,0.00,VWS V14.01,2013-04-22 03:28:00,
2013-04-21 20:33:00,48.0,32.6,-100.00,WNW,294,0.0,4.9,55,0.00,,,0.00,VWS V14.01,2013-04-22 03:33:00,
2013-04-21 20:38:00,47.7,32.8,-100.00,West,270,0.0,4.9,56,0.00,,,0.00,VWS V14.01,2013-04-22 03:38:00,
2013-04-21 20:43:00,47.3,32.8,-100.00,NNE,24,0.0,4.9,57,0.00,,,0.00,VWS V14.01,2013-04-22 03:43:00,
2013-04-21 20:48:00,46.8,32.8,-100.00,NNE,24,0.0,4.9,58,0.00,,,0.00,VWS V14.01,2013-04-22 03:48:00,
2013-04-21 20:53:00,46.2,33.5,-100.00,NNE,27,0.0,4.9,61,0.00,,,0.00,VWS V14.01,2013-04-22 03:53:00,
2013-04-21 20:58:00,46.0,33.4,-100.00,NNE,22,0.0,4.9,61,0.00,,,0.00,VWS V14.01,2013-04-22 03:58:00,
2013-04-21 21:01:00,45.9,33.6,-100.00,NNE,22,0.0,0.0,62,0.00,,,0.00,VWS V14.01,2013-04-22 04:01:00,
2013-04-21 21:06:00,45.5,32.8,-100.00,NNE,22,0.0,0.0,61,0.00,,,0.00,VWS V14.01,2013-04-22 04:06:00,
2013-04-21 21:11:00,45.0,33.9,-100.00,North,6,0.0,0.0,65,0.00,,,0.00,VWS V14.01,2013-04-22 04:11:00,
2013-04-21 21:16:00,45.3,35.8,-100.00,WNW,303,3.1,4.5,69,0.00,,,0.00,VWS V14.01,2013-04-22 04:16:00,
2013-04-21 21:21:00,45.9,35.9,-100.00,ENE,75,0.0,7.2,68,0.00,,,0.00,VWS V14.01,2013-04-22 04:21:00,
2013-04-21 21:26:00,45.9,35.9,-100.00,East,98,0.0,7.2,68,0.00,,,0.00,VWS V14.01,2013-04-22 04:26:00,
2013-04-21 21:31:00,45.7,35.7,-100.00,North,0,0.0,7.2,68,0.00,,,0.00,VWS V14.01,2013-04-22 04:31:00,
2013-04-21 21:36:00,45.5,35.6,-100.00,NNE,14,0.0,7.2,68,0.00,,,0.00,VWS V14.01,2013-04-22 04:36:00,
2013-04-21 21:41:00,45.3,35.8,-100.00,NNW,342,0.0,7.2,69,0.00,,,0.00,VWS V14.01,2013-04-22 04:41:00,
2013-04-21 21:46:00,45.0,35.4,-100.00,NNE,28,3.1,7.2,69,0.00,,,0.00,VWS V14.01,2013-04-22 04:46:00,
2013-04-21 21:51:00,45.0,35.4,-100.00,NW,307,0.0,7.2,69,0.00,,,0.00,VWS V14.01,2013-04-22 04:51:00,
2013-04-21 21:56:00,44.8,34.9,-100.00,NNE,20,0.0,7.2,68,0.00,,,0.00,VWS V14.01,2013-04-22 04:56:00,
2013-04-21 22:01:00,44.8,34.9,-100.00,ENE,66,0.0,0.0,68,0.00,,,0.00,VWS V14.01,2013-04-22 05:01:00,
2013-04-21 22:06:00,44.8,34.5,-100.00,NNE,20,0.0,5.8,67,0.00,,,0.00,VWS V14.01,2013-04-22 05:06:00,
2013-04-21 22:11:00,44.6,34.3,-100.00,ENE,75,0.0,5.8,67,0.00,,,0.00,VWS V14.01,2013-04-22 05:11:00,
2013-04-21 22:16:00,44.4,34.2,-100.00,SE,130,0.0,5.8,67,0.00,,,0.00,VWS V14.01,2013-04-22 05:16:00,
2013-04-21 22:21:00,44.6,34.0,-100.00,East,86,0.0,5.8,66,0.00,,,0.00,VWS V14.01,2013-04-22 05:21:00,
2013-04-21 22:26:00,44.4,33.8,-100.00,North,0,0.0,5.8,66,0.00,,,0.00,VWS V14.01,2013-04-22 05:26:00,
2013-04-21 22:31:00,44.4,33.8,-100.00,East,93,0.0,5.8,66,0.00,,,0.00,VWS V14.01,2013-04-22 05:31:00,
2013-04-21 22:36:00,44.4,33.4,-100.00,North,0,0.0,5.8,65,0.00,,,0.00,VWS V14.01,2013-04-22 05:36:00,
2013-04-21 22:41:00,44.6,33.2,-100.00,NNW,343,0.0,5.8,64,0.00,,,0.00,VWS V14.01,2013-04-22 05:41:00,
2013-04-21 22:46:00,44.6,33.2,-100.00,NW,320,0.0,5.8,64,0.00,,,0.00,VWS V14.01,2013-04-22 05:46:00,
2013-04-21 22:51:00,44.4,33.0,-100.00,North,353,0.0,5.8,64,0.00,,,0.00,VWS V14.01,2013-04-22 05:51:00,
2013-04-21 22:56:00,44.2,32.5,-100.00,East,95,0.0,5.8,63,0.00,,,0.00,VWS V14.01,2013-04-22 05:56:00,
2013-04-21 23:01:00,44.4,32.6,-100.00,East,84,0.0,0.0,63,0.00,,,0.00,VWS V14.01,2013-04-22 06:01:00,
2013-04-21 23:06:00,44.4,31.8,-100.00,NE,50,7.2,7.2,61,0.00,,,0.00,VWS V14.01,2013-04-22 06:06:00,
2013-04-21 23:11:00,44.2,31.7,-100.00,NNW,341,0.0,7.2,61,0.00,,,0.00,VWS V14.01,2013-04-22 06:11:00,
2013-04-21 23:16:00,44.2,31.7,-100.00,NNE,18,0.0,7.2,61,0.00,,,0.00,VWS V14.01,2013-04-22 06:16:00,
2013-04-21 23:21:00,44.2,31.7,-100.00,NNE,22,0.0,7.2,61,0.00,,,0.00,VWS V14.01,2013-04-22 06:21:00,
2013-04-21 23:26:00,44.1,31.5,-100.00,NNW,345,3.1,7.2,61,0.00,,,0.00,VWS V14.01,2013-04-22 06:26:00,
2013-04-21 23:30:00,44.1,31.5,-100.00,North,9,0.0,7.2,61,0.00,,,0.00,VWS V14.01,2013-04-22 06:30:00,
2013-04-21 23:35:00,43.7,31.1,-100.00,NNE,13,0.0,7.2,61,0.00,,,0.00,VWS V14.01,2013-04-22 06:35:00,
2013-04-21 23:40:00,43.5,31.0,-100.00,North,0,0.0,7.2,61,0.00,,,0.00,VWS V14.01,2013-04-22 06:40:00,
2013-04-21 23:45:00,43.3,30.8,-100.00,NNW,345,0.0,7.2,61,0.00,,,0.00,VWS V14.01,2013-04-22 06:45:00,
2013-04-21 23:50:00,43.0,30.5,-100.00,NNW,329,4.0,7.2,61,0.00,,,0.00,VWS V14.01,2013-04-22 06:50:00,
2013-04-21 23:55:00,43.0,30.1,-100.00,NNW,348,3.1,7.2,60,0.00,,,0.00,VWS V14.01,2013-04-22 06:55:00,